Flag for Germany Weather past 2 weeks in Eckernförde, Schleswig-Holstein, Germany

Now
43 °F

Passing clouds.


Feels Like: 37 °F
Forecast: 41 / 48 °F
Wind: 10 mph from West

Location: Schleswig

Current Time: Dec 20, 2014 at 5:38:08 AM

Latest Report: Dec 20, 2014 at 5:00 AM


Visibility: 13 mi

Pressure: 29.69 "Hg

Humidity: 84%

Dew point: 38 °F

Location of EckernfördeLocation

Historic Weather in Eckernförde — Graph

°F

Eckernförde temperature yesterday

Maximum temperature yesterday: 51 °F (at 1:00 AM)
Minimum temperature yesterday: 40 °F (at 11:00 PM)
Average temperature yesterday: 46 °F

Past Weeks' High & Low Weather Summary

 TemperatureHumidityPressure
High51 °F (Dec 18, 9:00 PM)100% (Dec 5, 6:00 AM)30.27 "Hg (Dec 5, 6:00 AM)
Low32 °F (Dec 14, 7:00 AM)77% (Dec 13, 12:00 AM)29.03 "Hg (Dec 12, 1:00 PM)
Average39 °F95%29.75 "Hg
* Reported Dec 5 3:00 AM — Dec 20 3:00 AM, Eckernförde, Weather by CustomWeather, © 2014

Note: Actual official high and low records may vary slightly from our data, if they occured in-between our weather recording intervals... More about our weather records

Advertising

Eckernförde weather history for previous 24 hours

 ConditionsComfort  
Time TempWeatherWind HumidityBarometerVisibility
3:00 AM
Dec 20
40 °FOvercast.7 mph92%29.70 "Hg12 mi
2:00 AM40 °FSprinkles. Overcast.8 mph92%29.71 "Hg7 mi
1:00 AM41 °FSleet. Overcast.9 mph83%29.72 "Hg12 mi
12:00 AM41 °FOvercast.7 mph86%29.71 "Hg16 mi
11:00 PM
Dec 19
40 °FThunderstorms. Passing clouds.5 mph85%29.70 "Hg19 mi
9:00 PM41 °FPassing clouds.7 mph84%29.69 "Hg16 mi
8:00 PM41 °FPassing clouds.8 mph85%29.68 "Hg16 mi
7:00 PM41 °FPassing clouds.7 mph86%29.66 "Hg16 mi
6:00 PM40 °FOvercast.8 mph87%29.65 "Hg19 mi
5:00 PM42 °FPassing clouds.10 mph86%29.63 "Hg19 mi
3:00 PM45 °FScattered clouds.8 mph84%29.60 "Hg22 mi
2:00 PM45 °FSprinkles. Partly sunny.10 mph80%29.58 "Hg22 mi
1:00 PM46 °FPartly sunny.8 mph89%29.57 "Hg22 mi
12:00 PM46 °FPartly sunny.7 mph95%29.56 "Hg19 mi
11:00 AM46 °FLight rain. Overcast.6 mph98%29.56 "Hg14 mi
9:00 AM47 °FRain. Low clouds.6 mph99%29.53 "Hg11 mi
8:00 AM47 °FRain. Low clouds.3 mph100%29.50 "Hg2 mi
7:00 AM47 °FRain. Low clouds.5 mph100%29.53 "Hg2 mi
6:00 AM49 °FRain. Low clouds.8 mph100%29.50 "Hg1 mi
5:00 AM49 °FRain. Low clouds.8 mph100%29.54 "Hg2 mi
Weather by CustomWeather, © 2014

See weather overviewHow to use our weather pages